FW6629 Weather Reports


Display with metric or nautical units.
time (UTC)temp
F
wind
direction
speed
MPH
gust
MPH
rain 1hr
in
rain 24hr
in
rain mn
in
humidity
%
barometer
mb
20260904172025 95 93 1.0 6.0 0.00 0.00 0.00 56 1017.3
20260904171559 95 79 2.0 5.0 0.00 0.00 0.00 57 1017.3
20260904171022 94 115 2.0 4.0 0.00 0.00 0.00 56 1017.4
20260904170524 94 80 1.0 5.0 0.00 0.00 0.00 57 1017.4
20260904170049 93 77 1.0 5.0 0.00 0.00 0.00 60 1017.5
20260904165526 93 121 3.0 5.0 0.00 0.00 0.00 60 1017.6
20260904165025 93 287 1.0 5.0 0.00 0.00 0.00 59 1017.6
20260904164548 93 154 3.0 5.0 0.00 0.00 0.00 60 1017.6
20260904164028 93 137 0.0 6.0 0.00 0.00 0.00 60 1017.7
20260904163525 92 115 1.0 6.0 0.00 0.00 0.00 60 1017.7
20260904163053 92 123 1.0 5.0 0.00 0.00 0.00 62 1017.7
20260904162532 91 38 0.0 5.0 0.00 0.00 0.00 63 1017.8
20260904162024 91 79 1.0 7.0 0.00 0.00 0.00 63 1017.9
20260904161552 92 92 3.0 7.0 0.00 0.00 0.00 62 1017.8
20260904161027 91 90 3.0 5.0 0.00 0.00 0.00 64 1017.8
20260904160523 91 79 2.0 5.0 0.00 0.00 0.00 62 1017.9
20260904160050 91 0 1.0 5.0 0.00 0.00 0.00 62 1017.9
20260904155527 91 81 1.0 3.0 0.00 0.00 0.00 63 1018.0
20260904155025 91 73 1.0 4.0 0.00 0.00 0.00 62 1018.1
20260904154550 90 159 1.0 4.0 0.00 0.00 0.00 63 1018.0
20260904154025 90 164 1.0 5.0 0.00 0.00 0.00 64 1018.0
20260904153526 90 0 1.0 5.0 0.00 0.00 0.00 64 1018.1
20260904153058 90 74 2.0 4.0 0.00 0.00 0.00 66 1018.2
20260904152525 89 0 0.0 5.0 0.00 0.00 0.00 65 1018.0
20260904152024 89 0 1.0 5.0 0.00 0.00 0.00 64 1017.9
20260904151553 89 84 2.0 5.0 0.00 0.00 0.00 64 1018.0
20260904151027 89 0 0.0 4.0 0.00 0.00 0.00 66 1018.0
20260904150524 88 262 1.0 4.0 0.00 0.00 0.00 67 1018.0
20260904150051 88 164 2.0 4.0 0.00 0.00 0.00 68 1017.9
20260904145525 87 96 1.0 3.0 0.00 0.00 0.00 68 1018.0
20260904145025 87 121 0.0 2.0 0.00 0.00 0.00 69 1017.9
20260904144548 87 289 0.0 2.0 0.00 0.00 0.00 68 1017.9
20260904144028 87 307 1.0 6.0 0.00 0.00 0.00 70 1017.8
20260904143525 86 159 1.0 6.0 0.00 0.00 0.00 71 1017.8
20260904143046 86 117 4.0 6.0 0.00 0.00 0.00 71 1017.7
20260904142525 85 128 4.0 6.0 0.00 0.00 0.00 73 1017.7
20260904142024 84 152 3.0 5.0 0.00 0.00 0.00 74 1017.6
20260904141603 84 160 1.0 4.0 0.00 0.00 0.00 76 1017.7
20260904141026 83 144 2.0 7.0 0.00 0.00 0.00 76 1017.7
20260904140525 82 146 2.0 7.0 0.00 0.00 0.00 78 1017.6
20260904140052 82 100 1.0 6.0 0.00 0.00 0.00 81 1017.5
20260904135525 81 106 3.0 6.0 0.00 0.00 0.00 80 1017.5
20260904135026 81 127 3.0 6.0 0.00 0.00 0.00 81 1017.5
20260904134546 80 114 3.0 6.0 0.00 0.00 0.00 82 1017.5
20260904134025 80 123 4.0 6.0 0.00 0.00 0.00 85 1017.6
20260904133525 79 105 3.0 5.0 0.00 0.00 0.00 87 1017.6
20260904133049 78 122 2.0 4.0 0.00 0.00 0.00 89 1017.6
20260904132526 78 136 2.0 3.0 0.00 0.00 0.00 90 1017.6
20260904132026 77 160 0.0 3.0 0.00 0.00 0.00 91 1017.6
20260904131605 77 161 2.0 3.0 0.00 0.00 0.00 91 1017.7
20260904131025 77 162 0.0 2.0 0.00 0.00 0.00 92 1017.7
20260904130525 76 161 1.0 2.0 0.00 0.00 0.00 92 1017.7
20260904130050 76 111 1.0 2.0 0.00 0.00 0.00 92 1017.7
20260904125523 76 169 0.0 2.0 0.00 0.00 0.00 92 1017.8
20260904125025 76 129 0.0 2.0 0.00 0.00 0.00 92 1017.7
20260904124551 76 0 0.0 2.0 0.00 0.00 0.00 92 1017.7
20260904124028 75 129 0.0 2.0 0.00 0.00 0.00 92 1017.5
20260904123528 75 0 0.0 2.0 0.00 0.00 0.00 92 1017.6
20260904123103 75 129 0.0 2.0 0.00 0.00 0.00 92 1017.5
20260904122527 75 0 0.0 2.0 0.00 0.00 0.00 92 1017.5
20260904122025 74 129 0.0 2.0 0.00 0.00 0.00 92 1017.5
20260904121545 74 108 0.0 2.0 0.00 0.00 0.00 92 1017.5
20260904121028 74 108 0.0 2.0 0.00 0.00 0.00 92 1017.6
20260904120525 74 108 1.0 2.0 0.00 0.00 0.00 92 1017.5
20260904120050 73 354 0.0 2.0 0.00 0.00 0.00 92 1017.5
20260904115527 73 0 0.0 2.0 0.00 0.00 0.00 92 1017.5
20260904115029 73 354 0.0 2.0 0.00 0.00 0.00 92 1017.5
20260904114550 73 0 0.0 2.0 0.00 0.00 0.00 92 1017.5
20260904114025 73 354 0.0 2.0 0.00 0.00 0.00 92 1017.4
20260904113524 73 354 0.0 2.0 0.00 0.00 0.00 92 1017.4
20260904113049 73 0 0.0 2.0 0.00 0.00 0.00 91 1017.4
20260904112524 73 0 0.0 0.0 0.00 0.00 0.00 91 1017.3
20260904112027 73 0 0.0 0.0 0.00 0.00 0.00 91 1017.4
20260904111555 73 0 0.0 2.0 0.00 0.00 0.00 91 1017.2
20260904111054 73 0 0.0 2.0 0.00 0.00 0.00 91 1017.1
20260904110524 73 0 0.0 2.0 0.00 0.00 0.00 91 1017.1
20260904110053 73 354 0.0 2.0 0.00 0.00 0.00 91 1017.0
20260904105526 74 352 0.0 1.0 0.00 0.00 0.00 91 1016.8
20260904105027 74 0 0.0 0.0 0.00 0.00 0.00 91 1016.8
20260904104549 74 0 0.0 0.0 0.00 0.00 0.00 91 1016.7
20260904104028 74 0 0.0 0.0 0.00 0.00 0.00 91 1016.6
20260904103529 74 0 0.0 0.0 0.00 0.00 0.00 91 1016.7
20260904103047 74 0 0.0 0.0 0.00 0.00 0.00 91 1016.7
20260904102525 74 0 0.0 0.0 0.00 0.00 0.00 91 1016.7
20260904102026 74 0 0.0 0.0 0.00 0.00 0.00 91 1016.8
20260904101551 74 0 0.0 0.0 0.00 0.00 0.00 91 1016.7
20260904101026 74 0 0.0 0.0 0.00 0.00 0.00 91 1016.5
20260904100527 74 0 0.0 0.0 0.00 0.00 0.00 91 1016.6
20260904100045 74 0 0.0 0.0 0.00 0.00 0.00 91 1016.5
20260904095527 74 0 0.0 0.0 0.00 0.00 0.00 91 1016.4
20260904095023 74 0 0.0 2.0 0.00 0.00 0.00 91 1016.4
20260904094550 74 0 0.0 2.0 0.00 0.00 0.00 91 1016.4
20260904094024 74 0 0.0 0.0 0.00 0.00 0.00 91 1016.4
20260904093524 74 0 0.0 2.0 0.00 0.00 0.00 91 1016.3
20260904093049 75 0 0.0 2.0 0.00 0.00 0.00 91 1016.3
20260904092526 75 107 0.0 2.0 0.00 0.00 0.00 91 1016.3
20260904092027 75 107 0.0 2.0 0.00 0.00 0.00 91 1016.4
20260904091551 75 0 0.0 1.0 0.00 0.00 0.00 91 1016.3
20260904091024 75 0 0.0 0.0 0.00 0.00 0.00 91 1016.3
20260904090523 75 0 0.0 2.0 0.00 0.00 0.00 91 1016.2
20260904090050 75 107 0.0 2.0 0.00 0.00 0.00 91 1016.3
20260904085531 75 0 0.0 2.0 0.00 0.00 0.00 91 1016.3
20260904085025 75 107 0.0 2.0 0.00 0.00 0.00 91 1016.3
20260904084548 75 0 0.0 2.0 0.00 0.00 0.00 91 1016.4
20260904084025 75 0 0.0 2.0 0.00 0.00 0.00 91 1016.2
20260904083525 75 0 0.0 2.0 0.00 0.00 0.00 91 1016.3
20260904083057 75 0 0.0 2.0 0.00 0.00 0.00 91 1016.3
20260904082524 76 0 0.0 2.0 0.00 0.00 0.00 91 1016.3
20260904082024 76 107 0.0 2.0 0.00 0.00 0.00 91 1016.3
20260904081551 76 0 0.0 2.0 0.00 0.00 0.00 91 1016.2
20260904081025 76 104 1.0 2.0 0.00 0.00 0.00 91 1016.2
20260904080524 76 165 0.0 2.0 0.00 0.00 0.00 91 1016.1
20260904080047 76 115 1.0 2.0 0.00 0.00 0.00 91 1016.1
20260904075526 76 117 1.0 2.0 0.00 0.00 0.00 91 1016.1
20260904075025 76 137 0.0 1.0 0.00 0.00 0.00 91 1016.1
20260904074554 76 0 0.0 0.0 0.00 0.00 0.00 91 1016.0
20260904074025 76 0 0.0 2.0 0.00 0.00 0.00 91 1016.0
20260904073524 76 0 0.0 2.0 0.00 0.00 0.00 91 1015.9
20260904073050 76 0 0.0 2.0 0.00 0.00 0.00 91 1015.9
20260904072525 76 137 1.0 2.0 0.00 0.00 0.00 91 1015.9
20260904072024 76 118 1.0 2.0 0.00 0.00 0.00 91 1016.0
20260904071551 76 114 1.0 2.0 0.00 0.00 0.00 90 1016.0
20260904071026 76 135 1.0 1.0 0.00 0.00 0.00 90 1015.9
20260904070527 77 135 0.0 1.0 0.00 0.00 0.00 90 1015.8
20260904070047 77 0 0.0 0.0 0.00 0.00 0.00 90 1015.9
20260904065529 77 0 0.0 1.0 0.00 0.00 0.00 90 1015.9
20260904065026 77 0 0.0 1.0 0.00 0.00 0.00 90 1015.8
20260904064554 77 135 0.0 1.0 0.00 0.00 0.00 90 1015.9
20260904064029 77 0 0.0 2.0 0.00 0.00 0.00 90 1015.9
20260904063523 77 0 0.0 2.0 0.00 0.00 0.00 90 1016.1
20260904063106 77 0 1.0 2.0 0.00 0.00 0.00 90 1016.2
20260904062530 77 121 1.0 2.0 0.00 0.00 0.00 90 1016.2
20260904062028 77 117 0.0 2.0 0.00 0.00 0.00 90 1016.2
20260904061556 77 124 1.0 2.0 0.00 0.00 0.00 90 1016.2
20260904061028 77 102 1.0 2.0 0.00 0.00 0.00 90 1016.3
20260904060530 77 102 0.0 2.0 0.00 0.00 0.00 90 1016.3
20260904060105 77 0 0.0 0.0 0.00 0.00 0.00 90 1016.3
20260904055525 77 0 0.0 0.0 0.00 0.00 0.00 90 1016.3
20260904055026 77 0 0.0 0.0 0.00 0.00 0.00 90 1016.2
20260904054549 78 0 0.0 0.0 0.00 0.00 0.00 90 1016.2
20260904054025 78 0 0.0 0.0 0.00 0.00 0.00 90 1016.2
20260904053523 78 0 0.0 2.0 0.00 0.00 0.00 90 1016.3
20260904053053 78 0 0.0 2.0 0.00 0.00 0.00 90 1016.3
20260904052523 78 0 0.0 2.0 0.00 0.00 0.00 90 1016.4
20260904052025 78 0 0.0 2.0 0.00 0.00 0.00 90 1016.5
20260904051550 78 102 1.0 2.0 0.00 0.00 0.00 90 1016.5
20260904051023 78 0 0.0 2.0 0.00 0.00 0.00 89 1016.5
20260904050525 78 0 0.0 2.0 0.00 0.00 0.00 89 1016.4
20260904050044 78 102 0.0 2.0 0.00 0.00 0.00 89 1016.4
20260904045526 78 102 0.0 2.0 0.00 0.00 0.00 89 1016.5
20260904045023 78 102 1.0 2.0 0.00 0.00 0.00 89 1016.5
20260904044555 78 115 1.0 2.0 0.00 0.00 0.00 90 1016.6
20260904044025 78 146 0.0 0.0 0.00 0.00 0.00 89 1016.5
20260904043528 78 0 0.0 2.0 0.00 0.00 0.00 90 1016.6
20260904043046 78 0 0.0 2.0 0.00 0.00 0.00 90 1016.6
20260904042525 78 0 0.0 2.0 0.00 0.00 0.00 89 1016.6
20260904042024 78 0 0.0 0.0 0.00 0.00 0.00 89 1016.6
20260904041551 79 0 0.0 2.0 0.00 0.00 0.00 89 1016.6
20260904041028 79 0 0.0 2.0 0.00 0.00 0.00 89 1016.7
20260904040524 79 0 0.0 2.0 0.00 0.00 0.00 89 1016.7
20260904040051 79 111 0.0 2.0 0.00 0.00 0.00 89 1016.8
20260904035525 79 0 0.0 2.0 0.00 0.00 0.00 89 1016.8
20260904035030 79 0 0.0 2.0 0.00 0.00 0.00 89 1016.8
20260904034559 79 0 0.0 2.0 0.00 0.00 0.00 89 1016.7
20260904034024 79 0 0.0 2.0 0.00 0.00 0.00 89 1016.7
20260904033524 79 0 0.0 2.0 0.00 0.00 0.00 89 1016.9
20260904033053 79 111 0.0 1.0 0.00 0.00 0.00 88 1017.0
20260904032526 79 0 0.0 0.0 0.00 0.00 0.00 88 1016.9
20260904032025 79 0 0.0 2.0 0.00 0.00 0.00 88 1017.0
20260904031550 79 0 0.0 2.0 0.00 0.00 0.00 88 1016.9
20260904031024 79 111 0.0 2.0 0.00 0.00 0.00 88 1017.0
20260904030528 79 111 0.0 2.0 0.00 0.00 0.00 88 1017.0
20260904030048 79 111 0.0 2.0 0.00 0.00 0.00 88 1017.0
20260904025525 79 111 0.0 2.0 0.00 0.00 0.00 88 1017.0
20260904025025 80 0 0.0 2.0 0.00 0.00 0.00 88 1017.1
20260904024547 80 0 0.0 2.0 0.00 0.00 0.00 87 1017.1
20260904024024 80 0 0.0 2.0 0.00 0.00 0.00 87 1017.1
20260904023531 80 0 0.0 1.0 0.00 0.00 0.00 87 1016.9
20260904023050 80 0 0.0 2.0 0.00 0.00 0.00 87 1016.8
20260904022525 80 0 0.0 2.0 0.00 0.00 0.00 87 1016.8
20260904022027 81 0 0.0 2.0 0.00 0.00 0.00 87 1016.7
20260904021549 81 0 0.0 2.0 0.00 0.00 0.00 87 1016.6
20260904021026 81 120 0.0 2.0 0.00 0.00 0.00 87 1016.6
20260904020525 81 0 0.0 2.0 0.00 0.00 0.00 87 1016.5
20260904020048 81 120 0.0 2.0 0.00 0.00 0.00 86 1016.5
20260904015524 81 0 0.0 2.0 0.00 0.00 0.00 86 1016.4
20260904015026 81 0 0.0 2.0 0.00 0.00 0.00 86 1016.4
20260904014547 82 0 0.0 2.0 0.00 0.00 0.00 85 1016.4
20260904014027 82 0 0.0 2.0 0.00 0.00 0.00 85 1016.3
20260904013523 82 0 0.0 2.0 0.00 0.00 0.00 84 1016.3
20260904013049 82 144 1.0 2.0 0.00 0.00 0.00 84 1016.1
20260904012530 83 144 0.0 2.0 0.00 0.00 0.00 84 1016.1
20260904012031 83 0 0.0 2.0 0.00 0.00 0.00 84 1016.0
20260904011549 83 144 1.0 2.0 0.00 0.00 0.00 84 1016.1
20260904011028 83 0 0.0 2.0 0.00 0.00 0.00 84 1016.1
20260904010527 83 144 1.0 2.0 0.00 0.00 0.00 84 1016.0
20260904010051 83 0 0.0 0.0 0.00 0.00 0.00 83 1015.8
20260904005527 84 0 0.0 0.0 0.00 0.00 0.00 83 1015.7
20260904005025 84 0 0.0 0.0 0.00 0.00 0.00 82 1015.6
20260904004559 84 0 0.0 0.0 0.00 0.00 0.00 81 1015.7
20260904004024 85 0 0.0 0.0 0.00 0.00 0.00 81 1015.6
20260904003528 85 0 0.0 2.0 0.00 0.00 0.00 80 1015.7
20260904003050 85 0 0.0 2.0 0.00 0.00 0.00 79 1015.6
20260904002524 86 0 0.0 2.0 0.00 0.00 0.00 78 1015.6
20260904002025 86 0 0.0 2.0 0.00 0.00 0.00 77 1015.5
20260904001545 87 0 0.0 2.0 0.00 0.00 0.00 76 1015.5
20260904001029 87 0 0.0 2.0 0.00 0.00 0.00 77 1015.5
20260904000524 88 108 0.0 2.0 0.00 0.00 0.00 76 1015.4
20260904000113 88 93 0.0 1.0 0.00 0.00 0.00 76 1015.4
20260903235524 89 0 0.0 1.0 0.00 0.00 0.00 75 1015.3
20260903235024 89 92 1.0 1.0 0.00 0.00 0.00 73 1015.3
20260903234551 89 93 1.0 2.0 0.00 0.00 0.00 73 1015.2
20260903234025 90 93 1.0 2.0 0.00 0.00 0.00 72 1015.2
20260903233527 90 152 0.0 2.0 0.00 0.00 0.00 70 1015.2
20260903233049 90 144 0.0 2.0 0.00 0.00 0.00 69 1015.2
20260903232523 90 0 0.0 2.0 0.00 0.00 0.00 69 1015.2
20260903232025 90 104 1.0 2.0 0.00 0.00 0.00 71 1015.2
20260903231550 91 0 1.0 2.0 0.00 0.00 0.00 70 1015.2
20260903231025 91 100 0.0 2.0 0.00 0.00 0.00 67 1015.2
20260903230524 91 142 0.0 2.0 0.00 0.00 0.00 65 1015.2
20260903230048 91 0 0.0 2.0 0.00 0.00 0.00 66 1015.2
20260903225528 91 0 0.0 2.0 0.00 0.00 0.00 64 1015.2
20260903225025 92 112 0.0 1.0 0.00 0.00 0.00 62 1015.2
20260903224605 92 114 1.0 1.0 0.00 0.00 0.00 59 1015.3
20260903224026 92 110 1.0 2.0 0.00 0.00 0.00 60 1015.3
20260903223523 92 110 1.0 2.0 0.00 0.00 0.00 60 1015.2
20260903223047 92 106 1.0 2.0 0.00 0.00 0.00 61 1015.2
20260903222523 92 102 1.0 2.0 0.00 0.00 0.00 61 1015.2
20260903222029 93 99 1.0 2.0 0.00 0.00 0.00 58 1015.2
20260903221548 93 114 1.0 2.0 0.00 0.00 0.00 56 1015.2
20260903221026 93 107 1.0 3.0 0.00 0.00 0.00 56 1015.1
20260903220524 93 107 2.0 3.0 0.00 0.00 0.00 54 1015.1
20260903220104 93 117 1.0 2.0 0.00 0.00 0.00 54 1015.2
20260903215528 94 77 1.0 2.0 0.00 0.00 0.00 53 1015.2
20260903215029 94 83 1.0 3.0 0.00 0.00 0.00 54 1015.2
20260903214552 94 84 1.0 4.0 0.00 0.00 0.00 53 1015.3
20260903214023 94 129 2.0 4.0 0.00 0.00 0.00 52 1015.2
20260903213528 95 110 1.0 4.0 0.00 0.00 0.00 52 1015.3
20260903213050 95 105 1.0 4.0 0.00 0.00 0.00 52 1015.3
20260903212527 96 81 1.0 5.0 0.00 0.00 0.00 50 1015.3
20260903212027 96 64 1.0 5.0 0.00 0.00 0.00 51 1015.3
20260903211614 96 122 2.0 5.0 0.00 0.00 0.00 51 1015.3
20260903211028 97 117 2.0 7.0 0.00 0.00 0.00 49 1015.5
20260903210525 97 126 3.0 7.0 0.00 0.00 0.00 49 1015.4
20260903210044 98 86 2.0 7.0 0.00 0.00 0.00 48 1015.6
20260903205525 98 11 2.0 10.0 0.00 0.00 0.00 48 1015.6
20260903205024 98 111 2.0 10.0 0.00 0.00 0.00 48 1015.6
20260903204551 98 85 2.0 7.0 0.00 0.00 0.00 47 1015.7
20260903204023 98 83 4.0 9.0 0.00 0.00 0.00 47 1015.6
20260903203526 99 27 3.0 10.0 0.00 0.00 0.00 47 1015.6
20260903203050 98 44 4.0 11.0 0.00 0.00 0.00 47 1015.6
20260903202524 99 31 4.0 11.0 0.00 0.00 0.00 47 1015.7
20260903202026 98 77 4.0 10.0 0.00 0.00 0.00 48 1015.7
20260903201547 98 96 4.0 8.0 0.00 0.00 0.00 48 1015.6
20260903201024 99 112 3.0 10.0 0.00 0.00 0.00 46 1015.6
20260903200525 99 63 3.0 10.0 0.00 0.00 0.00 48 1015.7
20260903200047 99 146 4.0 6.0 0.00 0.00 0.00 46 1015.7
20260903195526 99 86 1.0 6.0 0.00 0.00 0.00 44 1015.8
20260903195026 99 121 2.0 6.0 0.00 0.00 0.00 46 1015.9
20260903194551 99 29 1.0 6.0 0.00 0.00 0.00 45 1016.0
20260903194024 99 58 2.0 8.0 0.00 0.00 0.00 47 1015.9
20260903193523 99 73 3.0 8.0 0.00 0.00 0.00 47 1016.0
20260903193049 99 80 3.0 7.0 0.00 0.00 0.00 46 1016.0
20260903192527 98 104 2.0 10.0 0.00 0.00 0.00 45 1016.1
20260903192026 99 81 6.0 10.0 0.00 0.00 0.00 45 1016.1
20260903191545 99 106 6.0 9.0 0.00 0.00 0.00 45 1016.2
20260903191025 98 91 1.0 6.0 0.00 0.00 0.00 45 1016.1
20260903190528 99 142 1.0 8.0 0.00 0.00 0.00 45 1016.2
20260903190047 99 119 2.0 9.0 0.00 0.00 0.00 48 1016.3
20260903185525 98 87 2.0 9.0 0.00 0.00 0.00 46 1016.4
20260903185024 99 85 4.0 9.0 0.00 0.00 0.00 46 1016.4
20260903184553 98 146 1.0 8.0 0.00 0.00 0.00 46 1016.4
20260903184027 98 110 4.0 9.0 0.00 0.00 0.00 47 1016.6
20260903183528 98 119 6.0 9.0 0.00 0.00 0.00 45 1016.7
20260903183048 97 152 1.0 5.0 0.00 0.00 0.00 47 1016.7
20260903182526 97 275 1.0 5.0 0.00 0.00 0.00 48 1016.9
20260903182024 97 135 1.0 6.0 0.00 0.00 0.00 51 1017.1
20260903181547 97 15 2.0 6.0 0.00 0.00 0.00 49 1017.1
20260903181025 97 112 1.0 7.0 0.00 0.00 0.00 52 1017.2
20260903180525 97 90 4.0 7.0 0.00 0.00 0.00 51 1017.2
20260903180044 96 284 1.0 5.0 0.00 0.00 0.00 49 1017.3
20260903175528 97 90 2.0 7.0 0.00 0.00 0.00 51 1017.4
20260903175024 96 79 2.0 7.0 0.00 0.00 0.00 52 1017.4
20260903174608 96 156 2.0 5.0 0.00 0.00 0.00 48 1017.4
20260903174023 96 63 2.0 8.0 0.00 0.00 0.00 51 1017.4
20260903173525 96 65 2.0 8.0 0.00 0.00 0.00 47 1017.5
20260903173052 95 126 1.0 6.0 0.00 0.00 0.00 52 1017.6
20260903172525 95 150 1.0 4.0 0.00 0.00 0.00 53 1017.6